User: anonymous
Location: Hepcat Sky Observatory
(29.9800°N, 95.6500°W)
Time: 16:00:13
(UTC-05:00)
Language:

Cosmos 2151 Rocket - Orbit

View from above orbital plane
View from above orbital plane
View from above satellite
View from above satellite

Ground track
Ground track

The orbit data is extracted from the following two-line orbital elements,

1 21423U 91042B   14244.43815179  .00000219  00000-0  26423-4 0  7835
2 21423 082.4959 194.1504 0017153 355.1913 144.3647 14.79233995251806
Epoch (UTC): 01 September 2014 10:30:56
Eccentricity: 0.0017153
inclination: 82.4959°
perigee height: 620 km
apogee height: 644 km
right ascension of ascending node: 194.1504°
argument of perigee: 355.1913°
revolutions per day: 14.79233995
mean anomaly at epoch: 144.3647°
orbit number at epoch: 25180

The dashed part of the orbit path shows where the satellite is in the earth's shadow,  

DLR